BEAVERCUBE

Last updated on Tue Apr 11 2023 00:02:07 GMT+0000 (Coordinated Universal Time)

1 53768U 98067UF 23100.63677253 .12203786 12538-4 45222-3 0 9994 2 53768 51.6087 276.9556 0008288 286.6042 73.4075 16.43603060 33902

Satellite not in orbit